Location: NJAA Observatory
(40.6819°N, 74.8979°W)
Time: 23:03:42
(UTC-04:00)

Courier 1B - All Passes

Search period start: 29 May 2016 00:00
Search period end: 08 June 2016 00:00
Orbit: 963 x 1209 km, 28.3° (Epoch: 28 May)

Date Brightness Start Highest point End Pass type
(mag) Time Alt. Az. Time Alt. Az. Time Alt. Az.
29 May - 14:24:06 10° SSW 14:27:44 16° SSE 14:31:22 10° SE daylight
29 May - 16:15:34 10° SW 16:20:47 26° S 16:26:05 10° ESE daylight
29 May - 18:08:43 10° WSW 18:13:58 26° S 18:19:24 10° SE daylight
29 May - 20:03:21 10° SW 20:07:06 16° SSW 20:10:57 10° SSE daylight
30 May - 13:31:49 10° S 13:34:18 12° SSE 13:36:46 10° SE daylight
30 May - 15:22:17 10° SW 15:27:17 24° S 15:32:19 10° ESE daylight
30 May - 17:15:08 10° WSW 17:20:27 27° S 17:25:52 10° SE daylight
30 May - 19:09:16 10° WSW 19:13:35 18° SSW 19:18:03 10° SSE daylight
31 May - 14:29:05 10° SSW 14:33:48 21° SSE 14:38:30 10° ESE daylight
31 May - 16:21:37 10° SW 16:26:55 27° S 16:32:19 10° SE daylight
31 May - 18:15:22 10° WSW 18:20:05 21° SSW 18:24:55 10° SSE daylight
01 Jun - 13:36:01 10° SSW 13:40:19 18° SSE 13:44:34 10° ESE daylight
01 Jun - 15:28:07 10° SW 15:33:26 27° S 15:38:43 10° ESE daylight
01 Jun - 17:21:36 10° WSW 17:26:35 24° S 17:31:38 10° SE daylight
01 Jun - 19:17:12 10° SW 19:19:37 12° SSW 19:22:04 10° S daylight
02 Jun - 12:43:11 10° SSW 12:46:51 15° SSE 12:50:28 10° SE daylight
02 Jun - 14:34:42 10° SW 14:39:56 26° S 14:45:06 10° ESE daylight
02 Jun - 16:27:55 10° WSW 16:33:05 25° S 16:38:18 10° SE daylight
02 Jun - 18:22:36 10° SW 18:26:09 15° SSW 18:29:44 10° SSE daylight
03 Jun - 11:50:48 10° S 11:53:23 12° SSE 11:55:56 10° SE daylight
03 Jun - 13:41:19 10° SW 13:46:25 24° S 13:51:26 10° ESE daylight
03 Jun - 15:34:17 10° WSW 15:39:36 27° S 15:44:53 10° SE daylight
03 Jun - 17:28:28 10° WSW 17:32:41 18° SSW 17:36:56 10° SSE daylight
04 Jun - 12:48:02 10° SSW 12:52:55 21° SSE 12:57:41 10° ESE daylight
04 Jun - 14:40:40 10° SW 14:46:05 27° S 14:51:25 10° SE daylight
04 Jun - 16:34:31 10° WSW 16:39:12 21° SSW 16:43:54 10° SSE daylight
05 Jun - 11:54:52 10° SSW 11:59:24 19° SSE 12:03:49 10° ESE daylight
05 Jun - 13:47:06 10° SW 13:52:34 27° S 13:57:54 10° ESE daylight
05 Jun - 15:40:41 10° WSW 15:45:44 24° S 15:50:44 10° SE daylight
05 Jun - 17:36:18 10° SW 17:38:42 12° SSW 17:41:07 10° S daylight
06 Jun - 11:01:56 10° SSW 11:05:53 16° SSE 11:09:44 10° SE daylight
06 Jun - 12:53:33 10° SW 12:59:02 26° S 13:04:19 10° ESE daylight
06 Jun - 14:46:54 10° WSW 14:52:15 26° S 14:57:27 10° SE daylight
06 Jun - 16:41:39 10° SW 16:45:16 15° SSW 16:48:52 10° SSE daylight
07 Jun - 10:09:25 10° S 10:12:21 13° SSE 10:15:15 10° SE daylight
07 Jun - 12:00:05 10° SW 12:05:30 24° S 12:10:42 10° ESE daylight
07 Jun - 13:53:10 10° WSW 13:58:43 28° S 14:04:06 10° SE daylight
07 Jun - 15:47:26 10° WSW 15:51:49 19° SSW 15:56:08 10° SSE daylight
